SCP
0 0 0 0 0 0 0 0 0 0 0 0 0 0 0 0 0 0 0 0 0 0 0 0 0 0 0 0 0 0 0 0 0 0 0 0 0 0 0 0 0 0 0 0 0 0 0 0 0
0 0 0 0 0 0 0 0 0 0 0 0 0 0 0 0 0 0 0 0 0 0 0 0 0 0 0 0 0 0 0 0 0 0 0 0 0 0 0 0 0 0 0 0 0 0 0 0 0
0 0 0 0 0 0 0 0 0 0 0 0 0 0 0 0 0 0 0 0 0 0 0 0 0 0 0 0 0 0 0 0 0 0 0 0 0 0 0 0 0 0 0 0 0 0 0 0 0
0 0 0 0 0 0 0 0 0 0 0 0 0 0 0 0 0 0 0 0 0 0 0 0 0 0 0 0 0 0 0 0 0 0 0 0 0 0 0 0 0 0 0 0 0 0 0 0 0
0 0 0 0 0 0 0 0 0 0 0 0 0 0 0 0 0 0 0 0 0 0 0 0 0 0 0 0 0 0 0 0 0 0 0 0 0 0 0 0 0 0 0 0 0 0 0 0 0
0 0 0 0 0 0 0 0 0 0 0 0 0 0 0 0 0 0 0 0 0 0 0 0 0 0 0 0 0 0 0 0 0 0 0 0 0 0 0 0 0 0 0 0 0 0 0 0 0
0 0 0 0 0 0 0 0 0 0 0 0 0 0 0 0 0 0 0 0 0 0 0 0 0 0 0 0 0 0 0 0 0 0 0 0 0 0 0 0 0 0 0 0 0 0 0 0 0
0 0 0 0 0 0 0 0 0 0 0 0 0 0 0 0 0 0 0 0 0 0 0 0 0 0 0 0 0 0 0 0 0 0 0 0 0 0 0 0 0 0 0 0 0 0 0 0 0
0 0 0 0 0 0 0 0 0 0 0 0 0 0 0 0 0 0 0 0 0 0 0 0 0 0 0 0 0 0 0 0 0 0 0 0 0 0 0 0 0 0 0 0 0 0 0 0 0
0 0 0 0 0 0 0 0 0 0 0 0 0 0 0 0 0 0 0 0 0 0 0 0 0 0 0 0 0 0 0 0 0 0 0 0 0 0 0 0 0 0 0 0 0 0 0 0 0
0 0 0 0 0 0 0 0 0 0 0 0 0 0 0 0 0 0 0 0 0 0 0 0 0 0 0 0 0 0 0 0 0 0 0 0 0 0 0 0 0 0 0 0 0 0 0 0 0
0 0 0 0 0 0 0 0 0 0 0 0 0 0 0 0 0 0 0 0 0 0 0 0 0 0 0 0 0 0 0 0 0 0 0 0 0 0 0 0 0 0 0 0 0 0 0 0 0
0 0 0 0 0 0 0 0 0 0 0 0 0 0 0 0 0 0 0 0 0 0 0 0 0 0 0 0 0 0 0 0 0 0 0 0 0 0 0 0 0 0 0 0 0 0 0 0 0
0 0 0 0 0 0 0 0 0 0 0 0 0 0 0 0 0 0 0 0 0 0 0 0 0 0 0 0 0 0 0 0 0 0 0 0 0 0 0 0 0 0 0 0 0 0 0 0 0
0 0 0 0 0 0 0 0 0 0 0 0 0 0 0 0 0 0 0 0 0 0 0 0 0 0 0 0 0 0 0 0 0 0 0 0 0 0 0 0 0 0 0 0 0 0 0 0 0
0 0 0 0 0 0 0 0 0 0 0 0 0 0 0 0 0 0 0 0 0 0 0 0 0 0 0 0 0 0 0 0 0 0 0 0 0 0 0 0 0 0 0 0 0 0 0 0 0
0 0 0 0 0 0 0 0 0 0 0 0 0 0 0 0 0 0 0 0 0 0 0 0 0 0 0 0 0 0 0 0 0 0 0 0 0 0 0 0 0 0 0 0 0 0 0 0 0
0 0 0 0 0 0 0 0 0 0 0 0 0 0 0 0 0 0 0 0 0 0 0 0 0 0 0 0 0 0 0 0 0 0 0 0 0 0 0 0 0 0 0 0 0 0 0 0 0
0 0 0 0 0 0 0 0 0 0 0 0 0 0 0 0 0 0 0 0 0 0 0 0 0 0 0 0 0 0 0 0 0 0 0 0 0 0 0 0 0 0 0 0 0 0 0 0 0
0 0 0 0 0 0 0 0 0 0 0 0 0 0 0 0 0 0 0 0 0 0 0 0 0 0 0 0 0 0 0 0 0 0 0 0 0 0 0 0 0 0 0 0 0 0 0 0 0
0 0 0 0 0 0 0 0 0 0 0 0 0 0 0 0 0 0 0 0 0 0 0 0 0 0 0 0 0 0 0 0 0 0 0 0 0 0 0 0 0 0 0 0 0 0 0 0 0
0 0 0 0 0 0 0 0 0 0 0 0 0 0 0 0 0 0 0 0 0 0 0 0 0 0 0 0 0 0 0 0 0 0 0 0 0 0 0 0 0 0 0 0 0 0 0 0 0
0 0 0 0 0 0 0 0 0 0 0 0 0 0 0 0 0 0 0 0 0 0 0 0 0 0 0 0 0 0 0 0 0 0 0 0 0 0 0 0 0 0 0 0 0 0 0 0 0
0 0 0 0 0 0 0 0 0 0 0 0 0 0 0 0 0 0 0 0 0 0 0 0 0 0 0 0 0 0 0 0 0 0 0 0 0 0 0 0 0 0 0 0 0 0 0 0 0
0 0 0 0 0 0 0 0 0 0 0 0 0 0 0 0 0 0 0 0 0 0 0 0 0 0 0 0 0 0 0 0 0 0 0 0 0 0 0 0 0 0 0 0 0 0 0 0 0
0 0 0 0 0 0 0 0 0 0 0 0 0 0 0 0 0 0 0 0 0 0 0 0 0 0 0 0 0 0 0 0 0 0 0 0 0 0 0 0 0 0 0 0 0 0 0 0 0
0 0 0 0 0 0 0 0 0 0 0 0 0 0 0 0 0 0 0 0 0 0 0 0 0 0 0 0 0 0 0 0 0 0 0 0 0 0 0 0 0 0 0 0 0 0 0 0 0
0 0 0 0 0 0 0 0 0 0 0 0 0 0 0 0 0 0 0 0 0 0 0 0 0 0 0 0 0 0 0 0 0 0 0 0 0 0 0 0 0 0 0 0 0 0 0 0 0
0 0 0 0 0 0 0 0 0 0 0 0 0 0 0 0 0 0 0 0 0 0 0 0 0 0 0 0 0 0 0 0 0 0 0 0 0 0 0 0 0 0 0 0 0 0 0 0 0
0 0 0 0 0 0 0 0 0 0 0 0 0 0 0 0 0 0 0 0 0 0 0 0 0 0 0 0 0 0 0 0 0 0 0 0 0 0 0 0 0 0 0 0 0 0 0 0 0
Wind_Speed
3 2 2 3 3 2 5 5 4 4 4 5 5 4 5 6 5 6 5 4 4 4 5 6 6 6 7 8 8 8 8 8 8 8 8 8 8 9 9 9 9 9 9 9 9 9 9 9 9
1 1 3 2 2 4 6 4 5 5 5 4 4 4 5 7 6 7 5 4 4 5 5 7 6 6 7 8 8 8 8 8 8 8 9 8 8 9 9 8 9 9 9 9 9 10 10 10 9
2 2 2 1 2 3 6 5 6 6 4 2 3 4 5 6 5 5 5 5 5 5 6 8 6 7 7 8 8 9 9 9 9 9 9 9 9 9 8 9 9 9 9 9 9 10 10 10 10
2 2 1 2 6 6 5 6 5 6 4 3 3 6 6 5 4 6 7 6 6 6 6 8 6 7 7 8 8 9 9 9 9 9 9 9 9 9 8 8 9 9 9 10 10 10 10 9 9
2 2 3 5 6 5 4 4 4 4 4 4 4 7 7 5 6 8 7 5 6 6 6 8 7 7 7 8 8 9 9 9 10 9 9 9 9 9 9 9 10 10 10 10 10 10 10 10 9
2 2 3 5 6 5 5 5 4 5 5 5 5 7 7 6 7 7 7 5 5 5 5 7 8 7 7 8 8 9 9 9 10 10 10 10 10 10 10 10 10 10 10 10 10 10 10 10 9
1 1 3 6 6 5 5 4 3 4 5 4 3 6 7 7 7 7 6 6 6 5 5 6 7 7 8 8 8 9 9 9 10 10 10 10 10 10 11 11 10 10 10 11 11 11 10 10 10
1 2 5 4 5 5 5 4 2 2 5 4 2 4 6 8 8 7 6 6 6 6 5 5 6 6 6 8 9 8 9 9 9 10 9 8 9 10 10 11 11 11 11 11 11 11 11 11 10
3 2 4 4 4 5 6 5 3 2 5 4 2 4 7 11 9 7 6 6 6 5 5 5 5 5 6 7 8 7 8 7 6 8 6 3 6 7 8 12 12 11 11 11 11 10 10 8 9
2 2 3 2 3 5 5 4 4 5 5 5 6 6 8 10 9 8 7 6 6 6 5 4 5 5 5 5 5 4 5 5 4 5 5 5 6 6 7 10 11 11 9 9 9 8 6 4 5
1 2 3 3 3 4 4 3 3 4 3 3 5 8 10 10 9 7 6 6 5 5 5 4 4 5 5 4 4 3 3 3 4 6 6 5 5 4 4 4 5 6 5 6 6 4 5 5 5
2 2 2 3 4 4 4 3 2 2 1 2 4 8 10 10 8 7 6 6 5 5 5 4 4 4 4 4 4 3 3 3 3 4 5 4 3 3 4 3 4 4 4 4 4 4 6 7 7
3 2 2 3 4 3 3 3 2 2 1 2 5 7 9 8 7 6 5 5 5 5 5 4 4 4 4 4 3 3 3 3 4 3 3 4 3 4 4 4 3 4 4 4 4 5 6 6 7
2 3 3 3 4 4 4 3 3 2 3 5 6 7 8 7 7 6 6 6 6 6 5 5 4 4 4 4 3 3 3 3 3 3 3 4 3 3 3 4 4 4 4 4 4 5 5 5 5
3 3 3 3 3 3 4 4 4 2 4 6 7 7 6 6 7 6 6 6 6 6 6 6 4 4 4 4 4 3 2 3 3 3 3 4 3 3 3 3 3 3 3 3 4 5 4 4 5
4 4 4 3 2 3 6 3 2 3 6 6 6 6 6 6 7 6 6 6 6 6 7 7 5 5 5 4 4 3 2 2 2 2 2 3 3 2 3 2 2 3 3 2 3 3 3 4 4
5 4 3 3 2 3 5 3 2 3 5 5 6 6 7 7 7 7 6 6 6 7 7 8 7 6 5 4 4 3 3 2 2 2 1 2 2 2 2 2 1 2 2 2 2 3 3 3 3
4 4 3 3 2 4 5 4 3 4 5 5 5 5 6 7 7 7 7 6 6 6 7 7 7 6 6 4 4 3 3 2 2 1 2 2 1 2 2 2 1 2 2 2 2 3 2 2 2
4 5 5 3 1 5 6 6 4 4 5 6 5 5 6 6 6 6 7 7 7 7 8 8 8 7 6 4 4 4 3 2 2 2 2 2 2 2 2 1 2 1 1 2 2 2 2 2 1
6 6 5 3 2 5 6 7 5 4 5 5 5 5 6 6 6 6 7 8 8 8 8 9 8 7 6 4 4 3 3 2 2 2 2 2 2 2 2 2 2 2 1 2 2 2 1 1 1
7 7 6 4 3 6 6 8 6 6 5 4 4 4 5 5 6 7 8 8 8 8 8 7 8 8 7 7 4 4 3 3 3 3 2 2 2 2 2 2 1 1 2 2 2 1 1 1 0
6 5 6 6 7 5 5 7 5 6 6 5 5 4 4 5 5 6 7 8 8 8 7 8 7 7 7 7 6 6 4 4 3 3 3 3 3 2 2 2 2 2 2 2 2 2 1 1 1
4 3 5 7 8 8 7 8 3 5 5 5 4 4 4 5 5 5 6 7 7 7 7 7 7 7 7 7 7 6 5 4 3 3 3 3 2 2 3 2 2 2 2 3 2 2 2 1 1
3 4 4 5 6 9 6 7 4 3 3 3 3 3 4 4 4 4 5 6 6 6 6 6 7 7 7 7 7 7 6 5 5 5 4 3 3 3 3 3 3 3 3 3 3 3 3 2 1
7 6 5 5 6 5 2 6 3 1 0 1 1 2 3 3 4 4 4 5 6 7 7 7 7 7 7 8 7 7 7 6 6 6 5 4 3 3 4 3 4 3 3 3 3 3 3 3 2
7 8 6 5 5 3 4 6 1 2 0 1 1 2 3 3 3 3 4 4 5 6 7 7 8 7 7 8 7 6 6 4 4 4 4 4 3 3 4 4 4 4 4 4 4 3 3 3 3
7 7 6 8 7 7 5 4 3 3 2 1 1 1 2 3 3 3 3 4 5 5 6 7 7 7 7 7 7 6 5 5 4 4 4 4 3 3 4 4 4 4 4 4 4 3 3 3 2
5 4 5 7 7 8 7 7 4 4 2 1 1 1 1 2 2 3 3 4 4 4 4 6 7 7 7 7 6 5 5 5 4 4 4 4 4 4 4 5 5 4 5 4 4 4 3 4 2
5 6 7 7 7 7 7 3 2 0 1 1 0 0 1 2 2 3 3 3 4 4 4 4 5 6 6 7 6 6 5 5 5 4 4 4 4 4 4 5 5 4 5 5 4 5 4 5 4
6 7 8 8 8 8 8 3 2 1 1 1 1 0 1 2 2 2 3 3 4 4 4 4 4 5 5 5 6 6 5 5 5 4 4 4 4 4 5 5 5 4 4 5 5 5 5 5 4
Wind_Direction
181 192 230 235 215 116 84 81 87 97 78 65 62 58 62 45 27 65 88 99 92 93 92 98 75 73 70 69 68 67 68 72 71 72 77 78 73 69 71 74 77 81 82 80 78 80 85 82 78
205 218 236 236 213 125 98 99 94 74 90 99 80 71 74 71 59 88 108 106 102 92 87 77 76 79 76 73 71 70 70 74 75 73 77 81 76 70 69 71 75 77 79 80 80 79 80 79 77
171 255 266 201 97 84 104 104 99 99 109 111 92 61 52 76 89 98 104 121 112 95 87 83 77 79 78 75 72 69 70 73 75 77 77 78 76 74 71 70 72 75 79 82 83 80 79 79 79
222 213 214 130 98 78 94 113 122 129 114 92 105 92 81 73 91 104 118 127 115 103 96 89 78 78 76 74 72 71 70 71 75 77 79 77 77 75 72 74 74 75 78 81 82 81 79 78 78
230 227 151 121 101 94 96 113 142 127 107 106 104 100 96 89 102 116 123 123 114 102 97 96 86 80 76 75 75 73 72 72 74 76 76 75 73 71 72 75 78 78 78 80 81 82 82 80 79
206 212 154 125 113 110 117 130 132 116 110 111 110 108 98 111 122 122 123 123 112 104 102 105 101 85 76 75 76 74 74 75 76 74 74 73 70 69 70 73 81 81 78 77 76 77 79 78 76
214 142 122 124 127 126 121 137 136 125 114 109 120 113 116 130 129 130 127 125 118 114 108 106 113 110 102 84 76 75 74 75 76 74 73 73 73 72 70 70 77 82 81 78 75 75 74 73 71
297 156 135 135 136 120 128 139 105 111 104 111 148 125 132 140 141 137 133 130 123 119 111 104 100 95 100 101 90 81 79 78 78 75 72 77 85 82 76 74 70 77 77 76 74 74 73 72 70
238 185 136 135 143 125 143 151 125 111 125 130 116 82 116 135 148 147 141 134 125 121 117 111 106 100 93 89 100 103 101 91 104 97 88 94 84 80 80 67 68 72 77 75 72 73 75 78 82
222 147 101 105 136 131 147 152 144 157 146 142 134 118 131 148 160 160 153 145 140 133 126 119 115 109 102 96 102 94 92 93 86 88 90 81 76 71 75 84 74 71 77 84 77 81 88 70 72
149 94 101 123 138 141 150 147 165 177 152 150 156 150 153 162 166 166 159 152 141 135 129 129 124 116 109 105 94 86 87 90 88 88 91 86 84 91 80 85 94 83 79 76 88 88 66 62 57
126 91 122 135 147 165 158 155 179 206 104 109 141 150 159 169 172 169 164 155 151 146 139 133 130 124 117 109 104 103 97 92 89 93 88 86 81 75 75 74 71 67 64 63 64 64 68 64 63
148 115 113 136 152 163 159 179 210 215 195 152 148 158 168 174 171 169 165 161 159 154 154 145 145 134 125 111 110 111 98 89 96 91 96 88 83 78 80 80 74 67 64 66 62 64 66 64 60
103 125 135 150 158 175 183 197 212 208 182 173 170 172 178 180 178 173 178 176 173 168 164 150 156 146 141 134 133 111 109 108 99 96 98 97 88 83 78 77 75 68 60 56 62 66 65 64 60
151 158 155 164 180 175 202 213 213 201 181 182 184 181 183 184 181 185 187 187 185 173 167 156 161 155 150 135 121 115 119 117 110 104 101 96 86 86 85 73 79 79 76 70 62 65 59 62 66
194 206 188 145 179 184 226 229 153 173 189 190 191 185 188 192 192 187 190 193 187 177 169 160 165 166 155 146 144 135 125 119 111 105 93 93 91 80 78 74 77 82 81 74 66 64 64 61 55
207 219 210 162 181 200 230 253 150 181 203 205 200 194 195 197 198 194 192 199 190 183 175 167 169 169 161 154 153 145 133 128 118 108 107 103 100 92 93 75 73 89 87 84 78 68 58 62 56
221 236 230 226 190 230 237 248 211 198 215 220 210 204 201 206 201 197 193 196 190 187 184 177 168 175 165 167 165 149 145 143 126 121 118 104 109 104 97 107 112 97 95 90 92 89 76 64 64
258 252 254 263 253 252 255 260 238 208 217 223 217 215 210 209 204 196 190 187 185 187 192 186 182 179 172 173 179 169 160 157 149 137 118 134 134 131 117 117 104 109 119 120 110 101 102 89 81
235 245 252 255 235 260 269 266 252 216 222 229 227 216 215 209 200 192 191 186 188 188 196 194 189 182 179 183 181 175 163 166 150 152 155 158 156 155 148 152 132 140 132 137 121 123 98 83 50
236 250 259 269 258 238 266 254 223 202 207 215 227 228 212 210 205 195 193 190 192 193 196 197 189 183 183 180 176 169 158 166 170 172 170 162 164 168 170 163 168 167 177 159 159 171 175 159 125
243 247 258 257 255 247 246 273 226 204 206 212 218 218 209 202 203 196 191 191 196 197 196 197 188 186 183 181 183 185 187 188 188 183 170 173 179 178 182 189 207 196 197 189 187 187 207 215 198
254 260 249 253 258 261 236 260 242 187 215 216 214 210 206 201 198 194 192 191 195 192 191 192 186 185 181 185 184 195 196 196 186 186 181 184 182 194 198 209 211 214 209 207 196 197 219 216 239
207 204 209 227 248 251 245 252 259 197 225 217 197 199 197 196 194 193 181 180 183 179 181 185 183 184 183 189 191 199 197 196 191 195 191 189 190 202 200 212 217 216 213 211 203 202 209 233 237
214 230 229 223 222 241 227 251 257 72 21 269 221 181 178 184 181 176 172 178 177 177 179 180 181 186 187 192 198 201 204 204 203 198 199 200 197 199 204 207 217 216 211 208 203 207 211 214 224
220 236 248 260 260 259 218 245 182 107 96 254 210 187 167 173 174 172 170 173 176 178 180 183 185 188 190 196 200 203 199 203 210 208 200 204 209 204 204 207 214 216 213 206 204 217 216 223 220
224 229 257 267 266 264 241 234 199 169 172 144 146 166 173 168 172 174 172 174 176 175 181 186 187 190 192 196 198 199 197 200 205 212 208 207 210 205 208 202 210 209 214 217 211 218 211 221 224
263 229 220 238 254 254 249 245 232 186 188 151 141 167 186 183 180 171 172 177 175 173 178 187 192 195 195 197 198 196 199 197 200 203 205 208 206 203 205 206 209 204 206 209 214 217 215 216 210
194 212 229 239 250 263 264 247 50 226 198 207 20 226 201 195 189 175 173 177 172 169 172 181 188 194 197 199 199 198 197 196 194 201 203 209 207 204 205 210 214 209 209 207 202 213 210 220 216
242 233 232 244 242 250 267 263 97 234 227 252 301 326 200 195 189 176 169 169 168 171 173 185 188 187 193 198 198 199 197 196 198 199 199 206 209 214 211 211 214 213 216 215 209 208 214 222 225